Regional Weather Roundup
Issued by NWS Green Bay, WI

Home | Current Version | Previous Version | Graphics & Text | Print | Product List | Glossary Off
Versions: 1 2 3 4 5 6 7 8 9 10 11 12 13 14 15 16 17 18 19 20 21 22 23 24 25 26 27 28 29 30 31 32 33 34 35 36 37 38 39 40 41 42 43 44 45 46 47 48 49 50

000
ASUS43 KGRB 301810
RWRGRB

NORTH-CENTRAL AND NORTHEAST WISCONSIN REGIONAL WEATHER ROUNDUP
NATIONAL WEATHER SERVICE GREEN BAY WI
100 PM CDT SAT AUG 30 2014

WIZ005-009-010>012-018-019-301900-
NORTH CENTRAL WISCONSIN

CITY           SKY/WX    TMP DP  RH WIND       PRES   REMARKS
IRONWOOD       NOT AVBL
MANITOWISH WTR CLOUDY    59  59 100 N9        29.84R FOG
ARBOR VITAE    CLOUDY    62  60  92 N9        29.83R
EAGLE RIVER    LGT RAIN  63  63 100 N9        29.81S
LAND O LAKES   LGT RAIN  60  59  97 N8        29.83S
RHINELANDER    CLOUDY    64  62  93 N7        29.81R
PHILLIPS       CLOUDY    62  60  93 N6        29.83R
ANTIGO         CLOUDY    70  65  84 NW12      29.79R
TOMAHAWK       CLOUDY    65  61  89 NW7       29.82R
MERRILL        CLOUDY    71  65  81 NW10      29.79S
$$

WIZ013-073-301900-
NORTHEAST WISCONSIN

CITY           SKY/WX    TMP DP  RH WIND       PRES   REMARKS
IRON MOUNTAIN  CLOUDY    70  65  84 N5        29.75S
MARINETTE      CLOUDY    70  64  83 NW8       29.71S
OCONTO         CLOUDY    70  70 100 W8        29.73R
$$

WIZ017-030-035>037-045-301900-
CENTRAL WISCONSIN

CITY           SKY/WX    TMP DP  RH WIND       PRES   REMARKS
MEDFORD        CLOUDY    68  63  86 NW7       29.81S
WAUSAU         CLOUDY    72  66  81 NW8       29.77S
MOSINEE        RAIN      70  68  94 NW5       29.80S
MARSHFIELD     CLOUDY    73  66  78 NW12      29.80R
WISC RAPIDS    CLOUDY    73  68  84 W9        29.80S
STEVENS POINT  CLOUDY    69  66  89 SW5       29.79S
WAUPACA        MOSUNNY   78  66  68 NW7       29.77S
SHAWANO        CLOUDY    74  67  80 NW6       29.76S
CLINTONVILLE   CLOUDY    73  64  73 NW9       29.76S
$$

WIZ038-039-048-051-301900-
FOX VALLEY

CITY           SKY/WX    TMP DP  RH WIND       PRES   REMARKS
NWS GREEN BAY  CLOUDY    75  69  81 NW10      29.75R
APPLETON       PTSUNNY   73  64  73 NW13      29.77S
OSHKOSH        PTSUNNY   74  67  78 W3        29.76S
FOND DU LAC    LGT RAIN  71  68  90 SW9       29.78S
$$

WIZ022-050-052-301900-
EAST CENTRAL WISCONSIN

CITY           SKY/WX    TMP DP  RH WIND       PRES   REMARKS
STURGEON BAY   CLOUDY    73  68  83 SW9       29.73S
MANITOWOC      LGT RAIN  73  69  87 SW8       29.76R
SHEBOYGAN      LGT RAIN  74  66  76 SW15      29.77S
$$

LMZ563-521-522-541>543-301900-
LAKESHORE

STATION/POSITION TIME  TEMP    WIND        PRES    VSBY  WAVE
                       AIR SEA DIR/SP/G                  HT/PER
                 (UTC) (F)     (DEG/KT/KT) (MB)    (MI)  (FT/S)
SHEBOYGAN LKSHOR 1800   72 58  240/  7/ 13 1007.6F
KEWAUNEE LKSHORE 1800   68     170/  7/  9 1006.5R
NORTHPORT PIER   1800   69     170/  4/ 12 1006.8S
N MID LAKE BUOY  1800   67 65  190/ 16/ 17 1006.4F         4/ 6
S GREEN BAY BUOY 1800   70     VRB 16/ 19  1007.8R
SISTER BAY LKSHO 1700   69     180/ 11/ 13   N/A
STURGEON BAY CG  1800   67 66  200/ 13     1007.7   3 1/2  2
CHAMBERS ISLAND  1800   71     190/  5/  8 1006.4F
MENOMINEE LKSHOR 1800   72     200/  5/  7 1006.8F
$$



USA.gov is the U.S. government's official web portal to all federal, state and local government web resources and services.